Torna al catalogo

FREGAT DEB

LostUNKNOWN
NORAD 45998·DEBRIS·🇷🇺 Russia

Lanciato Jul 18, 2011 da Baikonur Cosmodrome

Loading…

Prossimi Passaggi (prossime 24 ore)

TLE

ObsoletoSource: Space-Track

Epoca: Aug 17, 2020, 07:20 UTC

1 45998U 11037GZ  20230.30576997 -.00037900  00000-0 -10361+0 0  9991
2 45998  51.3253 200.9526 1390021 180.3713 179.6152 11.35062254  2720

Traccia FREGAT DEB in tempo reale con AllMySat

Download on the App Store